Find Starlink 5725

NORAD ID: 55605 Int'l Des: 2023-020 Owner: SPXS Country: US Constellation: starlink operational
LEOCIRCULAR

实时位置

正在加载3D地球...

关于 Starlink 5725

正在加载描述...

即将过境

Passes for default location (London). Set your location on the main map for personalized predictions.

高度历史

Loading altitude history...

两行轨道根数

1 55605U 23020AN 26119.84503575 .00002894 00000-0 11463-3 0 9995
2 55605 43.0051 65.2647 0001390 265.3490 94.7203 15.27587740176867
Epoch: Apr 29, 2026 • Age: 7 hours

当前状态

高度 482.8 km
速度 7.63 km/s
星下点 -0.10°S, 24.52°W
发射日期 Feb 12, 2023
运行时间 3.2 years
类型 internet

技术详情

分类 Payload
质量 305.00 kg
干质量 290.00 kg
总质量 305.00 kg
长度 0.20 m
直径 2.80 m
跨度 9.00 m
形状 Box + pan
制造商 SPXS
平台类型 Starlink
阶段状态 In Orbit
所有者/国家 SPXS/US

Most Searched